Showing default

USA 18, 16631

Orbit data source: Space-Track

USA 18, 16631 is an American payload satellite in LEO that was launched on Sun, 09 Feb 1986 UTC via an ATLAS H launch vehicle from the Air Force Western Test Range (AFWTR). Payload-class satellites include a variety of spacecraft equipped with specific instruments for various scientific and technological missions. These include communications satellites like Starlink; space stations such as the ISS; scientific satellites like the Hubble; Earth observation satellites from companies like Planet Labs, Umbra, and HawkEye 360; GPS; miniature CubeSats for education and research; and military/defense satellites.

Loading next visibility...
Identifier
16631, 1986-014H
Orbit
LEO
Country
Flag of USUS
Related business
Manufacturer
Martin Marietta
Mission
Spacecraft
Bus & Motor
NOSS SSU, Unknown motor
Mass
200 kg wet, 200 kg dry
Launch date (UTC)
1986-02-09 (40 years ago)
Launch vehicle
ATLAS H
Launch site
Air Force Western Test Range (AFWTR)
Object type
Payload
Rocket body
Debris
Shape & HBR
Unknown
Radar Cross Section
Large (>1 m²)

Expand to show TLE details & history
Last TLE update: 3 days ago

TLE from 3 days ago
0 USA 18
1 16631U 86014H   26170.97298310  .00010173  00000-0  62481-3 0  9997
2 16631  63.2954  20.8864 0753796 112.5673 255.6893 13.92293251344745
Epoch: 2026-06-19T23:21Z
TLE epoch observation values (Epoch: 2026-06-19T23:21:05.739Z)
Latitude
-0.00005°
Longitude
122.41818°
Altitude
1,096.187 km
Speed
7.217 km/s
True Right ascension
01h 23m 32s
True Declination
0° 00' 00"
Sunlit
Object was in daylight at epoch
Visualization orbit readout
Latitude
Unknown
Longitude
Unknown
Altitude
Unknown
Speed
Unknown
Apparent Right ascension
Unknown
Apparent Declination
Unknown
Sunlit
N/A
Visualization observer readout
Local Sidereal Time
23:08:00
Azimuth
Unknown
Elevation
Unknown
Doppler factor
Unknown
Orbital elements
Apogee altitude
1,469.497 km
Perigee altitude
369.324 km
Semi-major axis
7,297.548 km
Eccentricity
0.07538
Inclination
63.2954°
RAAN
20.8864°
Arg. of periapsis
112.5673°
True anomaly
247.53764°
Mean anomaly
255.6893°
Eccentric anomaly
251.59137°
Mean motion
3.48159 °/min
Orbital period
103.4 mins
BSTAR
0.00062481
Loading maneuver chart data...
Computing Atmospheric mass density...
Loading historical data...
Loading historical data...
Loading historical data...
Loading historical data...
Loading historical data...
Loading historical data...
Loading historical data...

Documentation

Showing up to 5 results
|